Carbondale, IL

6:55 PM CST on December 12, 2017 (GMT -0600)
Southern Illinois

Weather History for KMDH - November, 2013

Change the Weather History Date:

Monday, November 11, 2013

  Actual Average Record
Temperature  
Mean Temperature 46 °F -  
Max Temperature 60 °F 55 °F 78 °F (1923)
Min Temperature 33 °F 34 °F 15 °F (1960)
Degree Days  
Heating Degree Days 18    
Moisture  
Dew Point 35 °F    
Average Humidity 68    
Maximum Humidity 96    
Minimum Humidity 38    
Precipitation  
Precipitation 0.00 in - - ()
Sea Level Pressure  
Sea Level Pressure 30.26 in    
Wind  
Wind Speed 5 mph (West)    
Max Wind Speed 20 mph    
Max Gust Speed 29 mph    
Visibility 10 miles    
Events Rain    
Averages and records for this station are not official NWS values.
T = Trace of Precipitation, MM = Missing Value Source: NWS Daily Summary

Daily Weather History Graph

Daily Weather History Graph

Search for Another Location

Airport or City:

Trip Planner

Search our weather history database for the weather conditions in past years. The results will help you decide how hot, cold, wet, or windy it might be!

Date:

Astronomy

Nov. 11, 2013 Rise Set
Actual Time 6:33 AM CST 4:48 PM CST
Civil Twilight 6:05 AM CST 5:16 PM CST
Nautical Twilight 5:33 AM CST 5:47 PM CST
Astronomical Twilight 5:02 AM CST 6:18 PM CST
Moon 1:23 PM CST (11/11) 12:24 AM CST (11/11)
Length of Visible Light 11h 10m
Length of Day
10h 15m
Waxing Gibbous, 66% of the Moon is Illuminated
Nov 11
Waxing Gibbous
Nov 17
Full
Nov 25
Last Quarter
Dec 2
New
Dec 9
First Quarter

Hourly Weather History & Observations

Time (CST) Temp. Windchill Dew Point Humidity Pressure Visibility Wind Dir Wind Speed Gust Speed Precip Events Conditions
12:52 AM 35.1 °F - 32.0 °F 89% 30.30 in 10.0 mi Calm Calm - N/A   Clear
1:52 AM 37.0 °F - 32.0 °F 82% 30.30 in 10.0 mi Calm Calm - N/A   Clear
2:52 AM 34.0 °F - 33.1 °F 96% 30.29 in 10.0 mi Calm Calm - N/A   Clear
3:52 AM 33.1 °F - 30.9 °F 92% 30.28 in 10.0 mi Calm Calm - N/A   Clear
4:52 AM 33.1 °F - 30.9 °F 92% 30.28 in 10.0 mi Calm Calm - N/A   Clear
5:52 AM 34.0 °F - 30.9 °F 89% 30.27 in 10.0 mi Calm Calm - N/A   Clear
6:52 AM 35.1 °F 32.2 °F 30.9 °F 85% 30.28 in 10.0 mi South 3.5 mph - N/A   Mostly Cloudy
7:52 AM 45.0 °F - 36.0 °F 71% 30.29 in 10.0 mi Calm Calm - N/A   Overcast
8:52 AM 51.1 °F - 32.0 °F 48% 30.27 in 10.0 mi SSW 11.5 mph - N/A   Overcast
9:52 AM 53.1 °F - 32.0 °F 45% 30.27 in 10.0 mi SSW 8.1 mph - N/A   Overcast
10:52 AM 55.9 °F - 30.9 °F 39% 30.26 in 10.0 mi SW 8.1 mph - N/A   Overcast
11:52 AM 57.0 °F - 32.0 °F 39% 30.23 in 10.0 mi SW 12.7 mph - N/A   Overcast
12:52 PM 59.0 °F - 33.1 °F 38% 30.20 in 10.0 mi SSW 13.8 mph - N/A   Mostly Cloudy
1:52 PM 59.0 °F - 34.0 °F 39% 30.17 in 10.0 mi SSW 11.5 mph - N/A   Overcast
2:52 PM 60.1 °F - 34.0 °F 38% 30.15 in 10.0 mi SSW 8.1 mph - N/A   Mostly Cloudy
3:52 PM 59.0 °F - 35.1 °F 41% 30.16 in 10.0 mi SSW 8.1 mph - N/A   Overcast
4:52 PM 54.0 °F - 37.9 °F 55% 30.15 in 10.0 mi SSW 5.8 mph - N/A   Overcast
5:52 PM 55.0 °F - 37.9 °F 53% 30.16 in 10.0 mi SW 5.8 mph - N/A   Overcast
6:52 PM 55.0 °F - 39.0 °F 55% 30.19 in 10.0 mi North 4.6 mph - 0.00 in Rain Light Rain
7:41 PM 53.6 °F - 44.6 °F 72% 30.22 in 10.0 mi North 19.6 mph 26.5 mph 0.00 in   Overcast
7:52 PM 51.1 °F - 44.1 °F 77% 30.24 in 10.0 mi North 13.8 mph 21.9 mph 0.00 in   Overcast
8:52 PM 46.9 °F - 39.9 °F 77% 30.29 in 10.0 mi North 17.3 mph 25.3 mph N/A   Overcast
9:23 PM 44.6 °F 38.1 °F 39.2 °F 81% 30.32 in 10.0 mi North 13.8 mph 27.6 mph 0.00 in   Overcast
9:52 PM 43.0 °F 35.1 °F 37.0 °F 80% 30.34 in 10.0 mi North 17.3 mph 28.8 mph 0.00 in   Overcast
10:39 PM 39.2 °F 30.5 °F 35.6 °F 87% 30.37 in 10.0 mi North 16.1 mph 23.0 mph 0.00 in   Overcast
10:52 PM 39.9 °F 31.1 °F 36.0 °F 86% 30.38 in 10.0 mi North 17.3 mph 26.5 mph 0.00 in   Overcast
11:52 PM 39.0 °F 31.4 °F 33.1 °F 79% 30.42 in 10.0 mi North 12.7 mph 20.7 mph 0.00 in   Overcast